Regional Weather Roundup
Issued by NWS Grand Forks, ND

Home | Current Version | Previous Version | Graphics & Text | Print | Product List | Glossary On
Versions: 1 2 3 4 5 6 7 8 9 10 11 12 13 14 15 16 17 18 19 20 21 22 23 24 25 26 27 28 29 30 31 32 33 34 35 36 37 38 39 40 41 42 43 44 45 46 47 48 49 50
000
ASUS43 KFGF 300610
RWRFGF
PRAIRIE TO PINES  WEATHER ROUNDUP
NATIONAL WEATHER SERVICE EASTERN NORTH DAKOTA/GRAND FORKS ND
100 AM CDT SAT MAY 30 2015

 **SATELLITE DATA USED TO AUGMENT SKY COVER AT AUTOMATED STATIONS**
 *****  WEATHER ACROSS EASTERN NORTH DAKOTA  *****

CITY           SKY/WX    TMP DP  RH WIND       PRES   REMARKS
GRAND FORKS    CLEAR     38  30  73 N14       30.34R
6HR MIN TEMP:  38; 6HR MAX TEMP:  54;

GRAND FRKS AFB NOT AVBL
GRAND FRKS NWS   N/A     37 N/A N/A N7          N/A
DEVILS LAKE    CLEAR     39  25  56 NE10      30.34R
6HR MIN TEMP:  39; 6HR MAX TEMP:  54;

FARGO          PTCLDY    43  33  68 N18G25    30.29R
WAHPETON ARPT  MOCLDY    45  34  65 N15G23    30.26R
$$

 ***** WEATHER ACROSS CENTRAL AND WESTERN NORTH DAKOTA  *****

CITY           SKY/WX    TMP DP  RH WIND       PRES   REMARKS
BISMARCK       CLEAR     42  35  76 E7        30.31R
6HR MIN TEMP:  41; 6HR MAX TEMP:  57;

MINOT          CLEAR     39  33  79 E7        30.33R
6HR MIN TEMP:  38; 6HR MAX TEMP:  56;

JAMESTOWN      CLEAR     42  32  67 NE15      30.30R
6HR MIN TEMP:  42; 6HR MAX TEMP:  57;

MINOT AFB      CLEAR     42  39  89 E12       30.32
GARRISON         N/A     43  36  76 NE7       30.30S
WILLISTON      CLEAR     48  30  49 E7        30.29S
6HR MIN TEMP:  45; 6HR MAX TEMP:  60;

DICKINSON      CLEAR     39  31  72 SE7       30.28S
6HR MIN TEMP:  39; 6HR MAX TEMP:  56;

HETTINGER      CLEAR     37  33  85 CALM      30.30S
6HR MIN TEMP:  37; 6HR MAX TEMP:  55;

$$

 *****  OTHER AIRPORT OBSERVATIONS IN OUR AREA  *****

CITY           SKY/WX    TMP DP  RH WIND       PRES   REMARKS
WALHALLA         N/A     36  25  64 MISG      30.38S
GRAFTON AIRPOR FAIR      37  27  65 N12       30.36S
VALLEY CITY AR MIX PCPN  41  32  70 NE16      30.30S
CANDO          FAIR      36  27  69 NE6       30.36R
CAVALIER APRT  FAIR      37  27  65 N7        30.37S
GWINNER        NOT AVBL
SHEYENNE NWR     N/A     44  33  64 NE10      29.95S
ROLLA          FAIR      32  32 100 N12       30.36F WCI  23
 ***** THE ABOVE OBSERVATIONS ARE NON NWS ARE NOT QUALITY
       CONTROLLED AND MAY MIS-REPORT RAIN FOR SNOW...
$$

  *****  WEATHER ACROSS NORTHERN MINNESOTA  *****

CITY           SKY/WX    TMP DP  RH WIND       PRES   REMARKS
FLAG ISLAND    PTCLDY    39  28  65 N24G32    30.29R
WARROAD        CLEAR     36  30  80 NW10G17   30.30R
ROSEAU         CLEAR     37  30  75 N10       30.31R
HALLOCK        CLEAR     37  25  60 N13G18    30.35S
THF RVR FALLS  CLEAR     37  28  70 N15       30.31R
6HR MIN TEMP:  37; 6HR MAX TEMP:  52;

BAUDETTE       MOCLDY    43  30  60 N12       30.25R
6HR MIN TEMP:  43; 6HR MAX TEMP:  52;

WASKISH        CLOUDY    43  36  75 NW10G17   30.24R
CROOKSTON      CLEAR     37  28  70 N15       30.32S
STEPHEN NDAWN    N/A     37  28  70 VRB12       N/A
GREENBUSH NDAW   N/A     36  28  75 N12         N/A
$$
  *****  WEATHER ACROSS CENTRAL AND WEST MINNESOTA  *****

CITY           SKY/WX    TMP DP  RH WIND       PRES   REMARKS
FOSSTON        CLEAR     36  30  80 N15       30.27S
BEMIDJI        CLEAR     41  34  75 N8        30.23R
PARK RAPIDS    PTCLDY    46  33  60 N16G24    30.19S
6HR MIN TEMP:  46; 6HR MAX TEMP:  57;

ELBOW LAKE     FAIR      46  37  72 N16G22    30.20R
6HR MIN TEMP:  46; 6HR MAX TEMP:  52;

WADENA         MOCLDY    45  37  76 N12       30.18S
DETROIT LAKES  PTCLDY    41  34  75 N9G21     30.24S
MOORHEAD       PTCLDY    43  34  70 N17       30.28R
FERGUS FALLS   MOCLDY    45  36  70 N16G22    30.23R
MORRIS MN      PTCLDY    46  41  81 N12       30.18S
STAPLES        MOCLDY    45  39  81 N8        30.18R
$$
  *****  WEATHER ELSEWHERE ACROSS MINNESOTA  *****

CITY           SKY/WX    TMP DP  RH WIND       PRES   REMARKS
DULUTH         MOCLDY    48  39  71 N9        30.11R
6HR MIN TEMP:  47; 6HR MAX TEMP:  53;

INTRNTL FALLS  PTCLDY    42  33  70 N12       30.21R
6HR MIN TEMP:  40; 6HR MAX TEMP:  51;

ELY            NOT AVBL
CLOQUET        MOCLDY    46  39  76 NW6       30.12S
WHEATON        MOCLDY    43  36  75 NW16G23   30.25R
BRAINERD       PTCLDY    48  40  73 N14G20    30.16R
6HR MIN TEMP:  48; 6HR MAX TEMP:  53;

HIBBING        CLOUDY    45  35  68 N13       30.15R
6HR MIN TEMP:  45; 6HR MAX TEMP:  54;

ALEXANDRIA     PTCLDY    48  39  71 N14       30.19R
6HR MIN TEMP:  48; 6HR MAX TEMP:  54;

SAINT CLOUD    MOCLDY    49  42  77 N9        30.13R
6HR MIN TEMP:  49; 6HR MAX TEMP:  53;

MINNEAPOLIS    CLOUDY    54  50  86 N14       30.07R
6HR MIN TEMP:  54; 6HR MAX TEMP:  62; 6HR PCP:  0.06;

$$

  *****  WEATHER ACROSS SOUTH DAKOTA  *****

CITY           SKY/WX    TMP DP  RH WIND       PRES   REMARKS
SIOUX FALLS    PTCLDY    48  43  82 N12       30.15R
6HR MIN TEMP:  48; 6HR MAX TEMP:  52; 6HR PCP: TRACE;

BROOKINGS      PTCLDY    45  39  81 N15       30.19R
WATERTOWN      PTCLDY    43  36  76 N14       30.20R
6HR MIN TEMP:  43; 6HR MAX TEMP:  49;

HURON          PTCLDY    43  39  86 N9        30.23R
6HR MIN TEMP:  41; 6HR MAX TEMP:  53;

SISSETON         N/A     45  37  73 N18       30.24R
ABERDEEN       MOCLDY    46  37  71 N12       30.27R
6HR MIN TEMP:  46; 6HR MAX TEMP:  56;

MITCHELL       MOCLDY    47  42  83 N9        30.22R
PIERRE         PTCLDY    42  38  85 N7        30.27R
6HR MIN TEMP:  42; 6HR MAX TEMP:  55;

MOBRIDGE       CLEAR     41  38  89 NE7       30.26S
RAPID CITY     CLEAR     38  36  92 CALM      30.30S
6HR MIN TEMP:  38; 6HR MAX TEMP:  57;

$$

  *****  SOME WEATHER IN NEARBY STATES *****

CITY           SKY/WX    TMP DP  RH WIND       PRES   REMARKS
GLASGOW MT     PTCLDY    46  34  62 E10       30.22F
6HR MIN TEMP:  46; 6HR MAX TEMP:  60;

GREAT FALLS MT CLOUDY    58  47  66 S10       30.04F
6HR MIN TEMP:  57; 6HR MAX TEMP:  67;

CHEYENNE WY    MOCLDY    42  41  96 W8        30.33S FOG
6HR MIN TEMP:  43; 6HR MAX TEMP:  49; 6HR PCP:  0.02;

SCOTTSBLUFF NE CLOUDY    48  46  93 NE7       30.30S
6HR MIN TEMP:  45; 6HR MAX TEMP:  53; 6HR PCP: TRACE;

OMAHA NE       CLOUDY    54  50  86 N20       30.07R
6HR MIN TEMP:  54; 6HR MAX TEMP:  77; 6HR PCP:  0.01;

DES MOINES IA  RAIN      61  59  93 NW14      29.98R FOG
6HR MIN TEMP:  61; 6HR MAX TEMP:  75; 6HR PCP:  0.18;

DAVENPORT IA   CLOUDY    68  62  81 S8        29.95F
6HR MIN TEMP:  68; 6HR MAX TEMP:  77; 6HR PCP: TRACE;

CHICAGO IL     MOCLDY    71  65  81 SW8       29.93F
6HR MIN TEMP:  71; 6HR MAX TEMP:  80;

EAU CLAIRE WI  CLOUDY    57  54  89 N12G20    30.00R
6HR MIN TEMP:  57; 6HR MAX TEMP:  65; 6HR PCP:  0.11;

LA CROSSE WI   LGT RAIN  66  63  90 N7        29.91R
6HR MIN TEMP:  66; 6HR MAX TEMP:  69; 6HR PCP:  0.25;

$$

  *****  SOME NATIONAL WEATHER *****

CITY           SKY/WX    TMP DP  RH WIND       PRES   REMARKS
LA GUARDIA NY  MOCLDY    67  60  78 S7        30.20F
6HR MIN TEMP:  66; 6HR MAX TEMP:  74;

RALEIGH NC     PTCLDY    71  65  81 S3        30.20S
6HR MIN TEMP:  69; 6HR MAX TEMP:  80;

ATLANTA GA     PTCLDY    70  60  70 CALM      30.15F
6HR MIN TEMP:  70; 6HR MAX TEMP:  81;

NEW ORLEANS LA PTCLDY    76  69  79 SE6       30.05S
6HR MIN TEMP:  76; 6HR MAX TEMP:  81;

OKLAHOMA CITY  PTCLDY    67  64  90 CALM      30.02R
6HR MIN TEMP:  65; 6HR MAX TEMP:  78;

ALBUQUERQUE NM MOCLDY    64  44  48 E22G33    30.20R
6HR MIN TEMP:  61; 6HR MAX TEMP:  81;

SALT LAKE CITY MOCLDY    62  40  44 SE8       30.12S
6HR MIN TEMP:  62; 6HR MAX TEMP:  76;




USA.gov is the U.S. government's official web portal to all federal, state and local government web resources and services.